Regional Weather Roundup
Issued by NWS Little Rock, AR

Home | Current Version | Previous Version | Graphics & Text | Print | Product List | Glossary On
Versions: 1 2 3 4 5 6 7 8 9 10 11 12 13 14 15 16 17 18 19 20 21 22 23 24 25 26 27 28 29 30 31 32 33 34 35 36 37 38 39 40 41 42 43 44 45 46 47 48 49 50
000
ASUS44 KLZK 052005
RWRLZK

WEATHER ROUNDUP FOR ARKANSAS
NATIONAL WEATHER SERVICE LITTLE ROCK AR
300 PM CDT SUN JUL 05 2015

NOTE: "FAIR" INDICATES FEW OR NO CLOUDS BELOW 12,000 FEET WITH NO
SIGNIFICANT WEATHER AND/OR OBSTRUCTIONS TO VISIBILITY.

ARZ001-003-010-029-052100-
NORTHWEST ARKANSAS

CITY           SKY/WX    TMP DP  RH WIND       PRES   REMARKS
FAYETTEVILLE   PTSUNNY   84  74  71 S13       30.01F HX  91
FORT SMITH     PTSUNNY   90  73  57 SW3       29.97F HX  98
HARRISON       CLOUDY    72  69  90 S14G22    30.07R THUNDER
BENTONVILLE    PTSUNNY   88  72  58 SW10      30.02F HX  94
ROGERS         PTSUNNY   86  74  67 SW9       30.02F HX  94
SILOAM SPGS    PTSUNNY   88  73  62 SW12      30.01F HX  96
HIGHFILL       PTSUNNY   87  75  67 S9        30.00F HX  96
SPRINGDALE     PTSUNNY   86  73  66 SW10      30.03F HX  93
$$

ARZ004-005-016-052100-
NORTH CENTRAL ARKANSAS

CITY           SKY/WX    TMP DP  RH WIND       PRES   REMARKS
BATESVILLE     PTSUNNY   82  72  69 SE6       30.05F HX  87
FLIPPIN          N/A     88  73  62 SE7       30.01F HX  96
MTN HOME       MOSUNNY   85  73  67 VRB7      30.02F HX  91
$$

ARZ040-041-052100-
WEST CENTRAL ARKANSAS

CITY           SKY/WX    TMP DP  RH WIND       PRES   REMARKS
MENA           PTSUNNY   88  73  62 S6        30.03F HX  96
MOUNT IDA      PTSUNNY   85  76  74 S3        30.00F HX  94
$$

ARZ009-017-025-026-028-052100-
NORTHEAST ARKANSAS

CITY           SKY/WX    TMP DP  RH WIND       PRES   REMARKS
JONESBORO      PTSUNNY   86  72  62 SW12      30.04F HX  92
NEWPORT        CLOUDY    83  74  74 SE10G21   30.06F HX  89
WALNUT RIDGE   MOSUNNY   84  72  65 S12       30.04F HX  89
BLYTHEVILLE    MOSUNNY   85  73  67 SW6       30.05F HX  91
$$

ARZ022-023-033-042-044-052100-
CENTRAL ARKANSAS

CITY           SKY/WX    TMP DP  RH WIND       PRES   REMARKS
LITTLE ROCK    PTSUNNY   85  73  67 S9        30.04F HX  91
N LITTLE ROCK  PTSUNNY   84  76  75 S8        30.04F HX  93
JACKSONVILLE   PTSUNNY   84  75  75 SE9       30.03F HX  92
SEARCY         MOSUNNY   87  76  69 S12       30.05F HX  97
HOT SPRINGS    MOSUNNY   87  74  64 SW7       30.02F HX  95
RUSSELLVILLE   PTSUNNY   86  75  69 SE3       30.00F HX  95
$$

ARZ036-052100-
EAST ARKANSAS

CITY           SKY/WX    TMP DP  RH WIND       PRES   REMARKS
WEST MEMPHIS   CLOUDY    80  72  76 S7        30.06F
$$

ARZ050-053-066-070-073-052100-
SOUTHWEST ARKANSAS

CITY           SKY/WX    TMP DP  RH WIND       PRES   REMARKS
ARKADELPHIA    FAIR      91  77  63 W5        30.02F HX 104
CAMDEN         CLOUDY    73  68  83 MISG      30.05R
TEXARKANA      SUNNY     91  74  57 W13       30.02F HX 100
EL DORADO      CLOUDY    74  69  85 E20G26    30.07R THUNDER
DE QUEEN       SUNNY     90  76  63 S7        29.98F HX 101
$$

ARZ056-057-069-052100-
SOUTHEAST ARKANSAS

CITY           SKY/WX    TMP DP  RH WIND       PRES   REMARKS
PINE BLUFF     CLOUDY    73  70  90 S10       30.09F
STUTTGART      CLOUDY    75  70  83 MISG      30.06S
MONTICELLO     CLOUDY    71  68  90 SE8       30.10F

$$





USA.gov is the U.S. government's official web portal to all federal, state and local government web resources and services.